Location: Bettgenhausen
(50.6463°N, 7.5681°E)
Time: 00:23:22
(UTC+00:00)

Cosmos 540 Rocket - Pass Details

Date: 27 February 2020
Orbit: 740 x 754 km, 74.1° (Epoch: 09 April)

Event Time Altitude Azimuth Distance (km) Brightness Sun altitude
Rises 19:27:18 0° 200° (SSW) 3,171 6.8 -22.9°
Reaches altitude 10° 19:29:39 10° 200° (SSW) 2,254 6.0 -23.2°
Maximum altitude 19:34:45 84° 112° (ESE) 758 3.3 -24.0°
Drops below altitude 10° 19:39:56 10° 25° (NNE) 2,280 5.9 -24.8°
Sets 19:42:18 0° 25° (NNE) 3,211 6.7 -25.2°
